Flag for Germany Weather past 2 weeks in Hagen, North Rhine-Westphalia, Germany

Now
57 °F

Broken clouds.


Feels Like: 54 °F
Forecast: 41 / 73 °F
Wind: 16 mph from West

Location: Dortmund / Wickede

Current Time: Jun 3, 2015 at 9:46:34 AM

Latest Report: Jun 3, 2015 at 9:20 AM


Visibility: N/A

Pressure: 30.07 "Hg

Humidity: 72%

Dew point: 48 °F

Location of HagenLocation

Historic Weather in Hagen — Graph

°F

Hagen temperature yesterday

Maximum temperature yesterday: 66 °F (at 1:50 PM)
Minimum temperature yesterday: 52 °F (at 5:20 AM)
Average temperature yesterday: 62 °F

Past Weeks' High & Low Weather Summary

 TemperatureHumidityPressure
High68 °F (May 22, 3:50 PM)94% (May 25, 11:50 AM)30.33 "Hg (May 25, 11:50 AM)
Low41 °F (May 20, 5:20 AM)32% (May 21, 3:50 PM)29.71 "Hg (May 19, 8:20 AM)
Average56 °F62%30.01 "Hg
* Reported May 19 8:20 AM — Jun 3 8:50 AM, Hagen, Weather by CustomWeather, © 2015

Note: Actual official high and low records may vary slightly from our data, if they occured in-between our weather recording intervals... More about our weather records

Advertising

Hagen weather history for previous 24 hours

 ConditionsComfort  
Time TempWeatherWind HumidityBarometerVisibility
8:50 AM
Wed, Jun 3
57 °FPartly sunny.15 mph72%30.07 "HgN/A
8:20 AM57 °FPartly sunny.13 mph77%30.04 "HgN/A
7:50 AM57 °FOvercast.14 mph77%30.04 "HgN/A
7:20 AM57 °FOvercast.14 mph82%30.01 "HgN/A
6:50 AM57 °FRain. Mostly cloudy.14 mph88%30.01 "Hg2 mi
6:20 AM59 °FDrizzle. Fog.7 mph82%29.98 "Hg2 mi
5:20 AM63 °FPassing clouds.15 mph68%29.95 "HgN/A
10:20 PM
Tue, Jun 2
64 °FPartly sunny.12 mph64%29.92 "HgN/A
9:50 PM66 °FPartly sunny.18 mph60%29.92 "HgN/A
9:20 PM66 °FPartly sunny.14 mph60%29.92 "HgN/A
8:50 PM64 °FPartly sunny.12 mph64%29.92 "HgN/A
8:20 PM64 °FPartly sunny.8 mph68%29.89 "HgN/A
7:50 PM64 °FPartly sunny.7 mph68%29.89 "HgN/A
7:20 PM64 °FPartly sunny.9 mph64%29.89 "HgN/A
6:50 PM64 °FPartly sunny.12 mph64%29.89 "HgN/A
6:20 PM64 °FPartly sunny.14 mph64%29.89 "HgN/A
5:20 PM64 °FPartly sunny.16 mph64%29.89 "HgN/A
4:50 PM64 °FPartly sunny.14 mph64%29.89 "HgN/A
4:20 PM64 °FPartly sunny.16 mph64%29.89 "HgN/A
3:50 PM64 °FPartly sunny.16 mph60%29.86 "HgN/A
3:20 PM64 °FScattered clouds.17 mph60%29.86 "HgN/A
2:50 PM66 °FScattered clouds.24 mph56%29.86 "HgN/A
2:20 PM64 °FScattered clouds.25 mph60%29.83 "HgN/A
1:50 PM66 °FSunny.18 mph52%29.83 "Hg10 mi
1:20 PM63 °FScattered clouds.18 mph59%29.86 "HgN/A
12:50 PM63 °FScattered clouds.23 mph56%29.86 "HgN/A
12:20 PM63 °FScattered clouds.24 mph59%29.86 "HgN/A
11:50 AM61 °FPassing clouds.21 mph59%29.86 "HgN/A
11:20 AM63 °FScattered clouds.22 mph52%29.86 "HgN/A
10:50 AM61 °FPassing clouds.18 mph52%29.83 "HgN/A
10:20 AM61 °FSunny.22 mph55%29.83 "Hg10 mi
9:50 AM59 °FSunny.22 mph59%29.83 "Hg10 mi
9:20 AM57 °FPassing clouds.21 mph63%29.83 "HgN/A
Weather by CustomWeather, © 2015

See weather overviewHow to use our weather pages